Date String (YYYY-MM-DD hh:mm:ss) UTC,Instrument flags,Ambient pressure (hPa),Sample flow (lpm),Bypass flow (lpm),Sample temperature (°C),Ambient temperature (°C),ASC tube jacket temperature (°C),LED temperature (°C),Box temperature (°C),Sample RH (%),Span deviation,Mass concentration (μg/m³),Mass concentration (μg/m³),Mass concentration (μg/m³)
DateTimeUTC,F1_M11,P_M11,Q1_M11,Q2_M11,T1_M11,T2_M11,T3_M11,T4_M11,T5_M11,U1_M11,ZSPAN_M11,X0_M11,X2_M11,X1_M11
2022-08-27 22:00:00,,0821.4,5.01,0.00,29.4,27.9,00.0,38.0,31.3,14.7,0000.0,0009.64,0003.99,0003.60
2022-08-27 22:01:00,,0821.4,5.00,0.00,29.4,26.8,00.0,38.0,31.2,14.7,0000.0,0010.00,0003.98,0003.60
2022-08-27 22:02:00,,0821.4,4.99,0.00,29.4,26.4,00.0,38.0,31.2,14.8,0000.0,0009.84,0003.98,0003.59
2022-08-27 22:03:00,,0821.4,5.01,0.00,29.3,26.7,00.0,37.9,31.1,14.7,0000.0,0009.77,0003.98,0003.59
2022-08-27 22:04:00,,0821.4,4.99,0.00,29.3,26.9,00.0,37.9,31.0,14.9,0000.0,0009.92,0003.99,0003.58
2022-08-27 22:05:00,,0821.4,5.00,0.00,29.3,27.2,00.0,37.9,31.0,15.0,0000.0,0009.99,0003.99,0003.58
2022-08-27 22:06:00,,0821.4,5.01,0.00,29.3,27.5,00.0,37.9,31.1,14.5,0000.0,0010.15,0003.98,0003.58
2022-08-27 22:07:00,,0821.4,4.99,0.00,29.3,27.8,00.0,37.9,31.2,14.7,0000.0,0010.54,0004.00,0003.58
2022-08-27 22:08:00,,0821.4,5.01,0.00,29.3,28.0,00.0,37.9,31.2,14.6,0000.0,0010.63,0004.00,0003.57
2022-08-27 22:09:00,,0821.4,5.00,0.00,29.4,28.2,00.0,38.0,31.3,14.9,0000.0,0010.61,0004.00,0003.56
2022-08-27 22:10:00,,0821.4,4.99,0.00,29.4,27.4,00.0,38.0,31.3,14.8,0000.0,0010.42,0003.99,0003.56
2022-08-27 22:11:00,,0821.4,5.01,0.00,29.3,26.4,00.0,38.0,31.1,15.1,0000.0,0009.36,0003.99,0003.55
2022-08-27 22:12:00,,0821.4,5.00,0.00,29.3,26.4,00.0,37.9,31.1,15.8,0000.0,0008.75,0003.98,0003.56
2022-08-27 22:13:00,,0821.4,5.00,0.00,29.3,26.7,00.0,37.9,31.0,15.4,0000.0,0009.16,0004.00,0003.57
2022-08-27 22:14:00,,0821.4,5.00,0.00,29.2,27.0,00.0,37.9,30.9,15.2,0000.0,0008.79,0003.99,0003.57
2022-08-27 22:15:00,,0821.4,5.00,0.00,29.2,27.3,00.0,37.9,31.0,15.2,0000.0,0008.75,0003.98,0003.57
2022-08-27 22:16:00,,0821.4,4.99,0.00,29.2,27.5,00.0,37.9,31.0,15.1,0000.0,0008.65,0003.98,0003.57
2022-08-27 22:17:00,,0821.4,5.01,0.00,29.3,27.8,00.0,37.9,31.1,15.1,0000.0,0008.57,0004.00,0003.57
2022-08-27 22:18:00,,0821.4,5.00,0.00,29.3,28.0,00.0,37.9,31.2,15.2,0000.0,0008.22,0004.00,0003.58
2022-08-27 22:19:00,,0821.4,5.00,0.00,29.3,28.2,00.0,37.9,31.3,15.0,0000.0,0008.26,0004.04,0003.59
2022-08-27 22:20:00,,0821.4,5.00,0.00,29.4,27.6,00.0,37.9,31.3,15.0,0000.0,0008.28,0004.05,0003.60
2022-08-27 22:21:00,,0821.4,4.99,0.00,29.3,26.4,00.0,37.9,31.1,14.8,0000.0,0008.43,0004.03,0003.61
2022-08-27 22:22:00,,0821.4,5.00,0.00,29.3,26.3,00.0,37.9,31.1,15.0,0000.0,0008.73,0004.05,0003.62
2022-08-27 22:23:00,,0821.4,5.01,0.00,29.2,26.6,00.0,37.9,31.0,15.3,0000.0,0008.71,0004.07,0003.62
2022-08-27 22:24:00,,0821.4,5.00,0.00,29.2,26.9,00.0,37.8,30.9,15.2,0000.0,0008.70,0004.09,0003.62
2022-08-27 22:25:00,,0821.4,4.99,0.00,29.2,27.2,00.0,37.8,31.0,15.1,0000.0,0008.63,0004.07,0003.63
2022-08-27 22:26:00,,0821.4,5.00,0.00,29.2,27.5,00.0,37.8,31.0,15.0,0000.0,0009.11,0004.07,0003.64
2022-08-27 22:27:00,,0821.4,5.00,0.00,29.2,27.8,00.0,37.9,31.1,15.0,0000.0,0009.14,0004.08,0003.64
2022-08-27 22:28:00,,0821.4,5.00,0.00,29.3,28.0,00.0,37.9,31.2,14.7,0000.0,0009.18,0004.10,0003.65
2022-08-27 22:29:00,,0821.4,5.00,0.00,29.3,28.2,00.0,37.9,31.3,14.6,0000.0,0009.40,0004.11,0003.66
2022-08-27 22:30:00,,0821.4,5.00,0.00,29.4,27.7,00.0,37.9,31.3,14.7,0000.0,0009.52,0004.09,0003.66
2022-08-27 22:31:00,,0821.4,5.00,0.00,29.3,26.5,00.0,37.9,31.1,14.7,0000.0,0009.53,0004.09,0003.67
2022-08-27 22:32:00,,0821.4,5.01,0.00,29.3,26.3,00.0,37.9,31.1,14.8,0000.0,0009.63,0004.12,0003.67
2022-08-27 22:33:00,,0821.4,4.99,0.00,29.2,26.5,00.0,37.8,31.0,15.2,0000.0,0009.39,0004.13,0003.68
2022-08-27 22:34:00,,0821.4,5.00,0.00,29.2,26.8,00.0,37.8,30.9,14.7,0000.0,0009.35,0004.14,0003.68
2022-08-27 22:35:00,,0821.4,5.01,0.00,29.2,27.1,00.0,37.8,30.9,14.3,0000.0,0008.61,0004.09,0003.67
2022-08-27 22:36:00,,0821.4,5.01,0.00,29.2,27.4,00.0,37.8,31.0,14.4,0000.0,0008.55,0004.08,0003.66
2022-08-27 22:37:00,,0821.4,4.99,0.00,29.2,27.7,00.0,37.8,31.0,14.9,0000.0,0007.99,0004.09,0003.66
2022-08-27 22:38:00,,0821.4,5.01,0.00,29.2,27.9,00.0,37.8,31.1,14.7,0000.0,0007.90,0004.09,0003.65
2022-08-27 22:39:00,,0821.4,5.00,0.00,29.3,28.1,00.0,37.9,31.2,14.9,0000.0,0008.52,0004.05,0003.64
2022-08-27 22:40:00,,0821.4,4.99,0.00,29.3,27.9,00.0,37.9,31.3,14.7,0000.0,0009.19,0004.04,0003.63
2022-08-27 22:41:00,,0821.4,5.00,0.00,29.3,26.7,00.0,37.9,31.1,14.7,0000.0,0009.05,0004.05,0003.63
2022-08-27 22:42:00,,0821.3,5.01,0.00,29.2,26.3,00.0,37.9,31.0,15.0,0000.0,0009.19,0004.03,0003.61
2022-08-27 22:43:00,,0821.4,4.99,0.00,29.2,26.6,00.0,37.8,31.0,15.4,0000.0,0009.96,0004.06,0003.61
2022-08-27 22:44:00,,0821.4,4.99,0.00,29.2,26.8,00.0,37.8,30.9,15.4,0000.0,0009.96,0004.07,0003.60
2022-08-27 22:45:00,,0821.3,4.99,0.00,29.1,27.2,00.0,37.8,30.9,15.7,0000.0,0009.93,0004.08,0003.61
2022-08-27 22:46:00,,0821.4,5.01,0.00,29.2,27.4,00.0,37.8,30.9,16.3,0000.0,0010.09,0004.13,0003.62
2022-08-27 22:47:00,,0821.4,4.99,0.00,29.2,27.7,00.0,37.8,31.0,16.7,0000.0,0010.34,0004.15,0003.63
2022-08-27 22:48:00,,0821.4,5.00,0.00,29.2,27.9,00.0,37.8,31.1,16.5,0000.0,0011.02,0004.16,0003.63
2022-08-27 22:49:00,,0821.4,5.00,0.00,29.3,28.1,00.0,37.8,31.2,16.7,0000.0,0011.74,0004.17,0003.65
2022-08-27 22:50:00,,0821.4,5.00,0.00,29.3,28.0,00.0,37.9,31.3,16.2,0000.0,0011.22,0004.21,0003.67
2022-08-27 22:51:00,,0821.4,4.99,0.00,29.3,26.9,00.0,37.9,31.2,16.2,0000.0,0010.63,0004.24,0003.69
2022-08-27 22:52:00,,0821.4,5.01,0.00,29.3,26.3,00.0,37.9,31.1,16.4,0000.0,0010.89,0004.22,0003.71
2022-08-27 22:53:00,,0821.4,5.00,0.00,29.2,26.6,00.0,37.8,31.1,16.5,0000.0,0011.10,0004.28,0003.74
2022-08-27 22:54:00,,0821.5,5.00,0.00,29.2,26.8,00.0,37.8,30.9,17.5,0000.0,0010.56,0004.27,0003.75
2022-08-27 22:55:00,,0821.5,5.00,0.00,29.1,27.1,00.0,37.8,30.9,17.2,0000.0,0010.66,0004.27,0003.76
2022-08-27 22:56:00,,0821.6,5.01,0.00,29.2,27.4,00.0,37.8,30.9,16.7,0000.0,0011.15,0004.29,0003.77
2022-08-27 22:57:00,,0821.6,5.00,0.00,29.2,27.7,00.0,37.8,31.0,16.4,0000.0,0011.72,0004.30,0003.78
2022-08-27 22:58:00,,0821.7,4.99,0.00,29.2,27.9,00.0,37.8,31.1,16.4,0000.0,0011.96,0004.31,0003.78
2022-08-27 22:59:00,,0821.7,5.00,0.00,29.3,28.1,00.0,37.8,31.2,16.9,0000.0,0011.57,0004.32,0003.79
